Year,Month,Day,Hour,Minute,Value (Times are PST for windspeed in km/hr)
2012,01,26,00,00,0.10
2012,01,26,00,01,0.30
2012,01,26,00,02,0.00
2012,01,26,00,03,0.00
2012,01,26,00,04,0.00
2012,01,26,00,05,0.40
2012,01,26,00,06,0.00
2012,01,26,00,07,0.00
2012,01,26,00,08,0.00
2012,01,26,00,09,0.00
2012,01,26,00,10,0.00
2012,01,26,00,11,0.00
2012,01,26,00,12,0.00
2012,01,26,00,13,0.00
2012,01,26,00,14,0.00
2012,01,26,00,15,0.00
2012,01,26,00,16,0.00
2012,01,26,00,17,0.00
2012,01,26,00,18,0.00
2012,01,26,00,19,0.00
2012,01,26,00,20,0.00
2012,01,26,00,21,0.00
2012,01,26,00,22,0.00
2012,01,26,00,23,0.00
2012,01,26,00,24,0.00
2012,01,26,00,25,0.00
2012,01,26,00,26,0.00
2012,01,26,00,27,0.00
2012,01,26,00,28,0.00
2012,01,26,00,29,0.00
2012,01,26,00,30,0.00
2012,01,26,00,31,0.00
2012,01,26,00,32,0.00
2012,01,26,00,33,0.00
2012,01,26,00,34,0.10
2012,01,26,00,35,0.20
2012,01,26,00,36,0.30
2012,01,26,00,37,0.10
2012,01,26,00,38,0.60
2012,01,26,00,39,0.30
2012,01,26,00,40,0.10
2012,01,26,00,41,0.80
2012,01,26,00,42,0.30
2012,01,26,00,43,0.00
2012,01,26,00,44,0.20
2012,01,26,00,45,0.20
2012,01,26,00,46,0.00
2012,01,26,00,47,0.20
2012,01,26,00,48,0.50
2012,01,26,00,49,0.80
2012,01,26,00,50,0.20
2012,01,26,00,51,0.10
2012,01,26,00,52,0.00
2012,01,26,00,53,0.10
2012,01,26,00,54,0.10
2012,01,26,00,55,0.00
2012,01,26,00,56,1.00
2012,01,26,00,57,0.30
2012,01,26,00,58,1.40
2012,01,26,00,59,2.80
2012,01,26,01,00,3.40
2012,01,26,01,01,1.60
2012,01,26,01,02,3.00
2012,01,26,01,03,5.20
2012,01,26,01,04,2.60
2012,01,26,01,05,2.00
2012,01,26,01,06,3.10
2012,01,26,01,07,0.30
2012,01,26,01,08,4.90
2012,01,26,01,09,5.70
2012,01,26,01,10,5.60
2012,01,26,01,11,5.20
2012,01,26,01,12,2.80
2012,01,26,01,13,3.80
2012,01,26,01,14,4.20
2012,01,26,01,15,4.40
2012,01,26,01,16,1.90
2012,01,26,01,17,5.90
2012,01,26,01,18,0.90
2012,01,26,01,19,5.80
2012,01,26,01,20,8.40
2012,01,26,01,21,3.40
2012,01,26,01,22,6.40
2012,01,26,01,23,5.20
2012,01,26,01,24,1.60
2012,01,26,01,25,5.90
2012,01,26,01,26,3.30
2012,01,26,01,27,2.10
2012,01,26,01,28,0.80
2012,01,26,01,29,9.00
2012,01,26,01,30,10.50
2012,01,26,01,31,8.70
2012,01,26,01,32,5.90
2012,01,26,01,33,3.90
2012,01,26,01,34,15.10
2012,01,26,01,35,4.80
2012,01,26,01,36,4.80
2012,01,26,01,37,9.30
2012,01,26,01,38,22.90
2012,01,26,01,39,12.50
2012,01,26,01,40,21.50
2012,01,26,01,41,5.50
2012,01,26,01,42,12.50
2012,01,26,01,43,10.90
2012,01,26,01,44,13.30
2012,01,26,01,45,13.40
2012,01,26,01,46,20.80
2012,01,26,01,47,23.20
2012,01,26,01,48,16.80
2012,01,26,01,49,14.60
2012,01,26,01,50,21.30
2012,01,26,01,51,26.10
2012,01,26,01,52,19.00
2012,01,26,01,53,22.50
2012,01,26,01,54,30.20
2012,01,26,01,55,28.10
2012,01,26,01,56,26.50
2012,01,26,01,57,16.20
2012,01,26,01,58,10.50
2012,01,26,01,59,20.40
2012,01,26,02,00,9.30
2012,01,26,02,01,9.30
2012,01,26,02,02,23.90
2012,01,26,02,03,29.60
2012,01,26,02,04,32.90
2012,01,26,02,05,19.60
2012,01,26,02,06,18.40
2012,01,26,02,07,24.10
2012,01,26,02,08,30.70
2012,01,26,02,09,23.00
2012,01,26,02,10,23.60
2012,01,26,02,11,17.60
2012,01,26,02,12,19.80
2012,01,26,02,13,17.90
2012,01,26,02,14,23.90
2012,01,26,02,15,23.10
2012,01,26,02,16,24.10
2012,01,26,02,17,24.10
2012,01,26,02,18,22.00
2012,01,26,02,19,17.40
2012,01,26,02,20,28.50
2012,01,26,02,21,16.80
2012,01,26,02,22,15.60
2012,01,26,02,23,11.90
2012,01,26,02,24,14.70
2012,01,26,02,25,20.20
2012,01,26,02,26,18.10
2012,01,26,02,27,13.90
2012,01,26,02,28,21.30
2012,01,26,02,29,13.90
2012,01,26,02,30,16.00
2012,01,26,02,31,23.60
2012,01,26,02,32,17.00
2012,01,26,02,33,25.10
2012,01,26,02,34,13.00
2012,01,26,02,35,19.80
2012,01,26,02,36,11.00
2012,01,26,02,37,21.00
2012,01,26,02,38,32.00
2012,01,26,02,39,20.50
2012,01,26,02,40,30.30
2012,01,26,02,41,21.90
2012,01,26,02,42,23.30
2012,01,26,02,43,20.10
2012,01,26,02,44,12.00
2012,01,26,02,45,24.10
2012,01,26,02,46,21.20
2012,01,26,02,47,23.40
2012,01,26,02,48,14.90
2012,01,26,02,49,14.50
2012,01,26,02,50,14.60
2012,01,26,02,51,19.90
2012,01,26,02,52,19.40
2012,01,26,02,53,11.30
2012,01,26,02,54,5.60
2012,01,26,02,55,16.30
2012,01,26,02,56,12.70
2012,01,26,02,57,9.70
2012,01,26,02,58,10.70
2012,01,26,02,59,16.00
2012,01,26,03,00,13.20
2012,01,26,03,01,12.00
2012,01,26,03,02,30.20
2012,01,26,03,03,15.80
2012,01,26,03,04,7.90
2012,01,26,03,05,15.00
2012,01,26,03,06,9.70
2012,01,26,03,07,6.70
2012,01,26,03,08,9.10
2012,01,26,03,09,16.20
2012,01,26,03,10,13.10
2012,01,26,03,11,11.10
2012,01,26,03,12,17.90
2012,01,26,03,13,13.00
2012,01,26,03,14,7.40
2012,01,26,03,15,8.60
2012,01,26,03,16,2.20
2012,01,26,03,17,6.50
2012,01,26,03,18,5.90
2012,01,26,03,19,11.70
2012,01,26,03,20,6.10
2012,01,26,03,21,3.80
2012,01,26,03,22,5.10
2012,01,26,03,23,12.60
2012,01,26,03,24,10.90
2012,01,26,03,25,5.10
2012,01,26,03,26,11.20
2012,01,26,03,27,12.90
2012,01,26,03,28,9.90
2012,01,26,03,29,4.80
2012,01,26,03,30,11.80
2012,01,26,03,31,8.00
2012,01,26,03,32,15.00
2012,01,26,03,33,7.70
2012,01,26,03,34,11.80
2012,01,26,03,35,8.00
2012,01,26,03,36,4.50
2012,01,26,03,37,0.70
2012,01,26,03,38,3.50
2012,01,26,03,39,1.00
2012,01,26,03,40,3.90
2012,01,26,03,41,3.00
2012,01,26,03,42,5.10
2012,01,26,03,43,15.40
2012,01,26,03,44,10.30
2012,01,26,03,45,5.50
2012,01,26,03,46,5.30
2012,01,26,03,47,12.40
2012,01,26,03,48,12.70
2012,01,26,03,49,10.40
2012,01,26,03,50,10.40
2012,01,26,03,51,0.60
2012,01,26,03,52,2.20
2012,01,26,03,53,0.20
2012,01,26,03,54,2.80
2012,01,26,03,55,4.90
2012,01,26,03,56,4.30
2012,01,26,03,57,3.60
2012,01,26,03,58,1.20
2012,01,26,03,59,4.00
2012,01,26,04,00,6.80
2012,01,26,04,01,5.10
2012,01,26,04,02,3.50
2012,01,26,04,03,6.60
2012,01,26,04,04,7.00
2012,01,26,04,05,6.50
2012,01,26,04,06,9.00
2012,01,26,04,07,7.20
2012,01,26,04,08,3.10
2012,01,26,04,09,2.50
2012,01,26,04,10,3.10
2012,01,26,04,11,4.50
2012,01,26,04,12,8.60
2012,01,26,04,13,7.10
2012,01,26,04,14,6.50
2012,01,26,04,15,4.00
2012,01,26,04,16,1.90
2012,01,26,04,17,3.80
2012,01,26,04,18,3.10
2012,01,26,04,19,0.90
2012,01,26,04,20,2.40
2012,01,26,04,21,1.40
2012,01,26,04,22,2.30
2012,01,26,04,23,5.60
2012,01,26,04,24,1.20
2012,01,26,04,25,2.80
2012,01,26,04,26,2.70
2012,01,26,04,27,0.20
2012,01,26,04,28,3.40
2012,01,26,04,29,3.60
2012,01,26,04,30,4.30
2012,01,26,04,31,2.70
2012,01,26,04,32,6.10
2012,01,26,04,33,5.70
2012,01,26,04,34,3.80
2012,01,26,04,35,1.90
2012,01,26,04,36,3.10
2012,01,26,04,37,3.90
2012,01,26,04,38,3.10
2012,01,26,04,39,3.40
2012,01,26,04,40,1.50
2012,01,26,04,41,0.50
2012,01,26,04,42,0.20
2012,01,26,04,43,0.80
2012,01,26,04,44,0.90
2012,01,26,04,45,0.40
2012,01,26,04,46,1.10
2012,01,26,04,47,3.00
2012,01,26,04,48,0.20
2012,01,26,04,49,0.00
2012,01,26,04,50,0.00
2012,01,26,04,51,1.90
2012,01,26,04,52,0.00
2012,01,26,04,53,0.00
2012,01,26,04,54,4.00
2012,01,26,04,55,0.00
2012,01,26,04,56,0.20
2012,01,26,04,57,2.50
2012,01,26,04,58,2.70
2012,01,26,04,59,0.50
2012,01,26,05,00,1.20
2012,01,26,05,01,2.10
2012,01,26,05,02,0.10
2012,01,26,05,03,0.00
2012,01,26,05,04,0.00
2012,01,26,05,05,0.00
2012,01,26,05,06,0.00
2012,01,26,05,07,0.00
2012,01,26,05,08,0.00
2012,01,26,05,09,0.90
2012,01,26,05,10,0.10
2012,01,26,05,11,0.40
2012,01,26,05,12,0.00
2012,01,26,05,13,0.00
2012,01,26,05,14,0.00
2012,01,26,05,15,0.00
2012,01,26,05,16,0.20
2012,01,26,05,17,0.00
2012,01,26,05,18,0.00
2012,01,26,05,19,0.20
2012,01,26,05,20,0.00
2012,01,26,05,21,0.00
2012,01,26,05,22,0.00
2012,01,26,05,23,0.00
2012,01,26,05,24,0.60
2012,01,26,05,25,0.00
2012,01,26,05,26,0.30
2012,01,26,05,27,0.60
2012,01,26,05,28,0.00
2012,01,26,05,29,0.10
2012,01,26,05,30,0.00
2012,01,26,05,31,0.00
2012,01,26,05,32,0.00
2012,01,26,05,33,0.80
2012,01,26,05,34,2.10
2012,01,26,05,35,0.50
2012,01,26,05,36,0.00
2012,01,26,05,37,0.00
2012,01,26,05,38,0.00
2012,01,26,05,39,0.00
2012,01,26,05,40,0.00
2012,01,26,05,41,2.40
2012,01,26,05,42,4.20
2012,01,26,05,43,3.40
2012,01,26,05,44,5.10
2012,01,26,05,45,1.70
2012,01,26,05,46,2.90
2012,01,26,05,47,4.10
2012,01,26,05,48,5.10
2012,01,26,05,49,6.80
2012,01,26,05,50,3.30
2012,01,26,05,51,6.40
2012,01,26,05,52,2.20
2012,01,26,05,53,2.60
2012,01,26,05,54,2.50
2012,01,26,05,55,0.50
2012,01,26,05,56,2.80
2012,01,26,05,57,4.60
2012,01,26,05,58,4.80
2012,01,26,05,59,2.40
2012,01,26,06,00,0.10
2012,01,26,06,01,1.60
2012,01,26,06,02,3.80
2012,01,26,06,03,5.00
2012,01,26,06,04,4.00
2012,01,26,06,05,5.30
2012,01,26,06,06,6.10
2012,01,26,06,07,5.50
2012,01,26,06,08,3.80
2012,01,26,06,09,7.50
2012,01,26,06,10,8.20
2012,01,26,06,11,5.40
2012,01,26,06,12,2.20
2012,01,26,06,13,4.10
2012,01,26,06,14,6.40
2012,01,26,06,15,8.30
2012,01,26,06,16,5.20
2012,01,26,06,17,1.00
2012,01,26,06,18,0.80
2012,01,26,06,19,1.50
2012,01,26,06,20,1.60
2012,01,26,06,21,0.40
2012,01,26,06,22,6.20
2012,01,26,06,23,7.80
2012,01,26,06,24,4.70
2012,01,26,06,25,1.50
2012,01,26,06,26,0.20
2012,01,26,06,27,2.50
2012,01,26,06,28,1.40
2012,01,26,06,29,3.80
2012,01,26,06,30,8.50
2012,01,26,06,31,1.40
2012,01,26,06,32,3.30
2012,01,26,06,33,8.00
2012,01,26,06,34,6.20
2012,01,26,06,35,1.70
2012,01,26,06,36,1.00
2012,01,26,06,37,0.70
2012,01,26,06,38,0.40
2012,01,26,06,39,0.00
2012,01,26,06,40,1.00
2012,01,26,06,41,1.10
2012,01,26,06,42,0.20
2012,01,26,06,43,0.00
2012,01,26,06,44,0.10
2012,01,26,06,45,0.80
2012,01,26,06,46,2.20
2012,01,26,06,47,2.10
2012,01,26,06,48,2.50
2012,01,26,06,49,1.40
2012,01,26,06,50,1.10
2012,01,26,06,51,3.40
2012,01,26,06,52,3.00
2012,01,26,06,53,1.10
2012,01,26,06,54,0.20
2012,01,26,06,55,2.30
2012,01,26,06,56,2.90
2012,01,26,06,57,1.90
2012,01,26,06,58,4.10
2012,01,26,06,59,0.90
2012,01,26,07,00,1.60
2012,01,26,07,01,3.80
2012,01,26,07,02,4.70
2012,01,26,07,03,4.10
2012,01,26,07,04,1.60
2012,01,26,07,05,2.90
2012,01,26,07,06,3.10
2012,01,26,07,07,4.10
2012,01,26,07,08,4.50
2012,01,26,07,09,3.50
2012,01,26,07,10,3.50
2012,01,26,07,11,2.70
2012,01,26,07,12,1.00
2012,01,26,07,13,2.40
2012,01,26,07,14,1.60
2012,01,26,07,15,2.70
2012,01,26,07,16,0.80
2012,01,26,07,17,1.10
2012,01,26,07,18,2.00
2012,01,26,07,19,1.50
2012,01,26,07,20,0.10
2012,01,26,07,21,0.50
2012,01,26,07,22,0.00
2012,01,26,07,23,0.00
2012,01,26,07,24,0.00
2012,01,26,07,25,0.10
2012,01,26,07,26,0.00
2012,01,26,07,27,0.00
2012,01,26,07,28,0.00
2012,01,26,07,29,0.10
2012,01,26,07,30,0.20
2012,01,26,07,31,1.00
2012,01,26,07,32,1.30
2012,01,26,07,33,0.70
2012,01,26,07,34,0.00
2012,01,26,07,35,0.30
2012,01,26,07,36,0.30
2012,01,26,07,37,0.10
2012,01,26,07,38,0.00
2012,01,26,07,39,0.50
2012,01,26,07,40,0.20
2012,01,26,07,41,0.00
2012,01,26,07,42,0.00
2012,01,26,07,43,0.10
2012,01,26,07,44,0.00
2012,01,26,07,45,0.00
2012,01,26,07,46,0.10
2012,01,26,07,47,0.50
2012,01,26,07,48,0.20
2012,01,26,07,49,1.20
2012,01,26,07,50,0.90
2012,01,26,07,51,0.00
2012,01,26,07,52,0.00
2012,01,26,07,53,0.00
2012,01,26,07,54,0.00
2012,01,26,07,55,0.10
2012,01,26,07,56,0.00
2012,01,26,07,57,0.00
2012,01,26,07,58,0.20
2012,01,26,07,59,0.00
2012,01,26,08,00,0.00
2012,01,26,08,01,0.50
2012,01,26,08,02,2.10
2012,01,26,08,03,1.10
2012,01,26,08,04,1.40
2012,01,26,08,05,2.50
2012,01,26,08,06,0.10
2012,01,26,08,07,0.20
2012,01,26,08,08,0.00
2012,01,26,08,09,0.00
2012,01,26,08,10,0.00
2012,01,26,08,11,0.00
2012,01,26,08,12,0.00
2012,01,26,08,13,0.10
2012,01,26,08,14,0.00
2012,01,26,08,15,0.00
2012,01,26,08,16,0.00
2012,01,26,08,17,0.00
2012,01,26,08,18,0.00
2012,01,26,08,19,0.00
2012,01,26,08,20,0.00
2012,01,26,08,21,0.00
2012,01,26,08,22,0.30
2012,01,26,08,23,1.10
2012,01,26,08,24,0.20
2012,01,26,08,25,0.90
2012,01,26,08,26,0.10
2012,01,26,08,27,0.10
2012,01,26,08,28,0.00
2012,01,26,08,29,0.10
2012,01,26,08,30,0.00
2012,01,26,08,31,0.00
2012,01,26,08,32,0.10
2012,01,26,08,33,0.80
2012,01,26,08,34,0.00
2012,01,26,08,35,0.10
2012,01,26,08,36,0.60
2012,01,26,08,37,1.50
2012,01,26,08,38,0.10
2012,01,26,08,39,0.30
2012,01,26,08,40,1.90
2012,01,26,08,41,0.20
2012,01,26,08,42,2.50
2012,01,26,08,43,1.80
2012,01,26,08,44,0.10
2012,01,26,08,45,1.30
2012,01,26,08,46,5.30
2012,01,26,08,47,4.10
2012,01,26,08,48,6.60
2012,01,26,08,49,8.10
2012,01,26,08,50,5.50
2012,01,26,08,51,6.40
2012,01,26,08,52,0.50
2012,01,26,08,53,0.00
2012,01,26,08,54,2.30
2012,01,26,08,55,0.80
2012,01,26,08,56,2.60
2012,01,26,08,57,2.50
2012,01,26,08,58,3.60
2012,01,26,08,59,5.60
2012,01,26,09,00,4.40
2012,01,26,09,01,0.20
2012,01,26,09,02,2.40
2012,01,26,09,03,3.40
2012,01,26,09,04,5.40
2012,01,26,09,05,3.20
2012,01,26,09,06,0.40
2012,01,26,09,07,3.90
2012,01,26,09,08,2.30
2012,01,26,09,09,4.70
2012,01,26,09,10,3.50
2012,01,26,09,11,2.00
2012,01,26,09,12,4.10
2012,01,26,09,13,4.40
2012,01,26,09,14,2.20
2012,01,26,09,15,1.60
2012,01,26,09,16,5.60
2012,01,26,09,17,5.30
2012,01,26,09,18,5.30
2012,01,26,09,19,1.40
2012,01,26,09,20,2.70
2012,01,26,09,21,1.70
2012,01,26,09,22,0.80
2012,01,26,09,23,4.40
2012,01,26,09,24,9.10
2012,01,26,09,25,1.80
2012,01,26,09,26,2.90
2012,01,26,09,27,4.40
2012,01,26,09,28,2.30
2012,01,26,09,29,4.10
2012,01,26,09,30,3.40
2012,01,26,09,31,5.30
2012,01,26,09,32,11.30
2012,01,26,09,33,5.80
2012,01,26,09,34,2.30
2012,01,26,09,35,3.80
2012,01,26,09,36,0.10
2012,01,26,09,37,1.10
2012,01,26,09,38,0.00
2012,01,26,09,39,0.00
2012,01,26,09,40,0.00
2012,01,26,09,41,0.20
2012,01,26,09,42,0.20
2012,01,26,09,43,0.30
2012,01,26,09,44,1.90
2012,01,26,09,45,5.90
2012,01,26,09,46,3.50
2012,01,26,09,47,2.00
2012,01,26,09,48,0.20
2012,01,26,09,49,2.40
2012,01,26,09,50,2.10
2012,01,26,09,51,0.90
2012,01,26,09,52,0.00
2012,01,26,09,53,0.20
2012,01,26,09,54,1.50
2012,01,26,09,55,1.80
2012,01,26,09,56,0.70
2012,01,26,09,57,0.60
2012,01,26,09,58,0.00
2012,01,26,09,59,0.40
2012,01,26,10,00,0.20
2012,01,26,10,01,0.10
2012,01,26,10,02,0.10
2012,01,26,10,03,0.00
2012,01,26,10,04,2.30
2012,01,26,10,05,4.30
2012,01,26,10,06,2.50
2012,01,26,10,07,0.60
2012,01,26,10,08,2.30
2012,01,26,10,09,3.50
2012,01,26,10,10,3.30
2012,01,26,10,11,0.10
2012,01,26,10,12,0.50
2012,01,26,10,13,0.30
2012,01,26,10,14,0.90
2012,01,26,10,15,0.90
2012,01,26,10,16,1.00
2012,01,26,10,17,2.10
2012,01,26,10,18,1.30
2012,01,26,10,19,0.30
2012,01,26,10,20,0.30
2012,01,26,10,21,2.50
2012,01,26,10,22,4.70
2012,01,26,10,23,1.90
2012,01,26,10,24,2.10
2012,01,26,10,25,1.70
2012,01,26,10,26,4.20
2012,01,26,10,27,5.80
2012,01,26,10,28,8.10
2012,01,26,10,29,14.20
2012,01,26,10,30,7.30
2012,01,26,10,31,8.70
2012,01,26,10,32,12.50
2012,01,26,10,33,10.30
2012,01,26,10,34,9.00
2012,01,26,10,35,9.00
2012,01,26,10,36,2.90
2012,01,26,10,37,6.10
2012,01,26,10,38,8.50
2012,01,26,10,39,2.70
2012,01,26,10,40,6.00
2012,01,26,10,41,5.10
2012,01,26,10,42,0.70
2012,01,26,10,43,2.00
2012,01,26,10,44,2.70
2012,01,26,10,45,1.70
2012,01,26,10,46,0.30
2012,01,26,10,47,4.10
2012,01,26,10,48,6.00
2012,01,26,10,49,3.30
2012,01,26,10,50,0.70
2012,01,26,10,51,2.70
2012,01,26,10,52,1.20
2012,01,26,10,53,2.50
2012,01,26,10,54,7.50
2012,01,26,10,55,11.80
2012,01,26,10,56,14.60
2012,01,26,10,57,9.00
2012,01,26,10,58,4.90
2012,01,26,10,59,8.90
2012,01,26,11,00,9.60
2012,01,26,11,01,5.10
2012,01,26,11,02,3.90
2012,01,26,11,03,7.60
2012,01,26,11,04,5.80
2012,01,26,11,05,4.70
2012,01,26,11,06,2.10
2012,01,26,11,07,1.30
2012,01,26,11,08,8.30
2012,01,26,11,09,14.00
2012,01,26,11,10,15.60
2012,01,26,11,11,16.70
2012,01,26,11,12,18.80
2012,01,26,11,13,8.20
2012,01,26,11,14,9.40
2012,01,26,11,15,12.60
2012,01,26,11,16,10.60
2012,01,26,11,17,7.40
2012,01,26,11,18,3.30
2012,01,26,11,19,6.50
2012,01,26,11,20,9.20
2012,01,26,11,21,10.30
2012,01,26,11,22,9.40
2012,01,26,11,23,17.20
2012,01,26,11,24,14.20
2012,01,26,11,25,12.20
2012,01,26,11,26,12.80
2012,01,26,11,27,18.20
2012,01,26,11,28,16.30
2012,01,26,11,29,12.60
2012,01,26,11,30,8.80
2012,01,26,11,31,6.70
2012,01,26,11,32,7.80
2012,01,26,11,33,13.00
2012,01,26,11,34,10.40
2012,01,26,11,35,12.20
2012,01,26,11,36,8.50
2012,01,26,11,37,10.10
2012,01,26,11,38,10.00
2012,01,26,11,39,11.30
2012,01,26,11,40,12.50
2012,01,26,11,41,8.70
2012,01,26,11,42,8.90
2012,01,26,11,43,7.60
2012,01,26,11,44,14.20
2012,01,26,11,45,12.30
2012,01,26,11,46,13.90
2012,01,26,11,47,10.40
2012,01,26,11,48,11.50
2012,01,26,11,49,13.90
2012,01,26,11,50,8.60
2012,01,26,11,51,6.70
2012,01,26,11,52,8.20
2012,01,26,11,53,9.20
2012,01,26,11,54,3.70
2012,01,26,11,55,7.60
2012,01,26,11,56,9.60
2012,01,26,11,57,9.70
2012,01,26,11,58,6.10
2012,01,26,11,59,5.90
2012,01,26,12,00,4.20
2012,01,26,12,01,8.80
2012,01,26,12,02,13.40
2012,01,26,12,03,10.30
2012,01,26,12,04,13.60
2012,01,26,12,05,12.50
2012,01,26,12,06,9.50
2012,01,26,12,07,18.60
2012,01,26,12,08,15.30
2012,01,26,12,09,8.60
2012,01,26,12,10,4.70
2012,01,26,12,11,3.50
2012,01,26,12,12,5.30
2012,01,26,12,13,6.40
2012,01,26,12,14,7.40
2012,01,26,12,15,13.20
2012,01,26,12,16,10.60
2012,01,26,12,17,14.80
2012,01,26,12,18,12.40
2012,01,26,12,19,6.20
2012,01,26,12,20,10.60
2012,01,26,12,21,6.70
2012,01,26,12,22,6.40
2012,01,26,12,23,6.10
2012,01,26,12,24,2.50
2012,01,26,12,25,6.90
2012,01,26,12,26,7.70
2012,01,26,12,27,5.00
2012,01,26,12,28,9.80
2012,01,26,12,29,5.90
2012,01,26,12,30,10.00
2012,01,26,12,31,6.80
2012,01,26,12,32,11.30
2012,01,26,12,33,17.00
2012,01,26,12,34,12.90
2012,01,26,12,35,7.50
2012,01,26,12,36,4.80
2012,01,26,12,37,6.60
2012,01,26,12,38,11.30
2012,01,26,12,39,8.40
2012,01,26,12,40,12.30
2012,01,26,12,41,10.40
2012,01,26,12,42,9.50
2012,01,26,12,43,11.70
2012,01,26,12,44,7.80
2012,01,26,12,45,5.50
2012,01,26,12,46,9.30
2012,01,26,12,47,6.80
2012,01,26,12,48,8.10
2012,01,26,12,49,5.10
2012,01,26,12,50,6.90
2012,01,26,12,51,11.00
2012,01,26,12,52,11.50
2012,01,26,12,53,8.80
2012,01,26,12,54,8.40
2012,01,26,12,55,13.50
2012,01,26,12,56,9.90
2012,01,26,12,57,8.30
2012,01,26,12,58,4.50
2012,01,26,12,59,6.40
2012,01,26,13,00,4.80
2012,01,26,13,01,12.00
2012,01,26,13,02,6.90
2012,01,26,13,03,0.90
2012,01,26,13,04,5.60
2012,01,26,13,05,10.80
2012,01,26,13,06,7.30
2012,01,26,13,07,2.00
2012,01,26,13,08,2.70
2012,01,26,13,09,5.70
2012,01,26,13,10,9.70
2012,01,26,13,11,3.10
2012,01,26,13,12,7.90
2012,01,26,13,13,5.60
2012,01,26,13,14,3.50
2012,01,26,13,15,3.10
2012,01,26,13,16,1.00
2012,01,26,13,17,0.30
2012,01,26,13,18,4.10
2012,01,26,13,19,7.00
2012,01,26,13,20,2.70
2012,01,26,13,21,9.30
2012,01,26,13,22,6.90
2012,01,26,13,23,6.30
2012,01,26,13,24,7.80
2012,01,26,13,25,6.60
2012,01,26,13,26,10.80
2012,01,26,13,27,16.30
2012,01,26,13,28,13.60
2012,01,26,13,29,14.70
2012,01,26,13,30,6.10
2012,01,26,13,31,7.80
2012,01,26,13,32,7.10
2012,01,26,13,33,4.80
2012,01,26,13,34,5.90
2012,01,26,13,35,13.50
2012,01,26,13,36,17.60
2012,01,26,13,37,15.90
2012,01,26,13,38,10.90
2012,01,26,13,39,10.90
2012,01,26,13,40,11.60
2012,01,26,13,41,6.50
2012,01,26,13,42,7.20
2012,01,26,13,43,9.20
2012,01,26,13,44,12.70
2012,01,26,13,45,10.30
2012,01,26,13,46,6.80
2012,01,26,13,47,7.50
2012,01,26,13,48,3.60
2012,01,26,13,49,6.80
2012,01,26,13,50,11.80
2012,01,26,13,51,10.10
2012,01,26,13,52,13.90
2012,01,26,13,53,8.10
2012,01,26,13,54,10.00
2012,01,26,13,55,9.80
2012,01,26,13,56,5.80
2012,01,26,13,57,12.10
2012,01,26,13,58,11.40
2012,01,26,13,59,15.90
2012,01,26,14,00,9.90
2012,01,26,14,01,9.10
2012,01,26,14,02,7.00
2012,01,26,14,03,9.10
2012,01,26,14,04,5.80
2012,01,26,14,05,11.30
2012,01,26,14,06,10.10
2012,01,26,14,07,5.20
2012,01,26,14,08,7.30
2012,01,26,14,09,11.90
2012,01,26,14,10,10.70
2012,01,26,14,11,9.60
2012,01,26,14,12,5.10
2012,01,26,14,13,6.90
2012,01,26,14,14,6.60
2012,01,26,14,15,9.60
2012,01,26,14,16,9.80
2012,01,26,14,17,10.30
2012,01,26,14,18,6.50
2012,01,26,14,19,14.70
2012,01,26,14,20,15.00
2012,01,26,14,21,9.00
2012,01,26,14,22,12.10
2012,01,26,14,23,21.40
2012,01,26,14,24,11.60
2012,01,26,14,25,10.60
2012,01,26,14,26,9.70
2012,01,26,14,27,13.30
2012,01,26,14,28,11.30
2012,01,26,14,29,10.90
2012,01,26,14,30,11.80
2012,01,26,14,31,5.60
2012,01,26,14,32,8.20
2012,01,26,14,33,12.50
2012,01,26,14,34,13.30
2012,01,26,14,35,15.70
2012,01,26,14,36,7.90
2012,01,26,14,37,9.70
2012,01,26,14,38,13.40
2012,01,26,14,39,13.00
2012,01,26,14,40,6.80
2012,01,26,14,41,10.10
2012,01,26,14,42,7.40
2012,01,26,14,43,7.40
2012,01,26,14,44,12.20
2012,01,26,14,45,12.00
2012,01,26,14,46,5.80
2012,01,26,14,47,9.70
2012,01,26,14,48,13.80
2012,01,26,14,49,16.00
2012,01,26,14,50,13.20
2012,01,26,14,51,9.30
2012,01,26,14,52,6.00
2012,01,26,14,53,11.10
2012,01,26,14,54,13.10
2012,01,26,14,55,11.40
2012,01,26,14,56,12.00
2012,01,26,14,57,6.70
2012,01,26,14,58,5.10
2012,01,26,14,59,2.70
2012,01,26,15,00,4.00
2012,01,26,15,01,6.40
2012,01,26,15,02,12.20
2012,01,26,15,03,11.10
2012,01,26,15,04,6.80
2012,01,26,15,05,8.10
2012,01,26,15,06,4.80
2012,01,26,15,07,2.90
2012,01,26,15,08,5.00
2012,01,26,15,09,4.80
2012,01,26,15,10,4.00
2012,01,26,15,11,7.10
2012,01,26,15,12,6.80
2012,01,26,15,13,6.40
2012,01,26,15,14,7.80
2012,01,26,15,15,7.70
2012,01,26,15,16,6.50
2012,01,26,15,17,13.30
2012,01,26,15,18,5.70
2012,01,26,15,19,5.60
2012,01,26,15,20,5.60
2012,01,26,15,21,5.20
2012,01,26,15,22,4.80
2012,01,26,15,23,5.30
2012,01,26,15,24,6.60
2012,01,26,15,25,5.70
2012,01,26,15,26,7.60
2012,01,26,15,27,6.40
2012,01,26,15,28,1.70
2012,01,26,15,29,4.10
2012,01,26,15,30,1.40
2012,01,26,15,31,0.00
2012,01,26,15,32,3.90
2012,01,26,15,33,4.50
2012,01,26,15,34,7.80
2012,01,26,15,35,8.60
2012,01,26,15,36,5.30
2012,01,26,15,37,5.50
2012,01,26,15,38,5.00
2012,01,26,15,39,3.90
2012,01,26,15,40,3.00
2012,01,26,15,41,6.20
2012,01,26,15,42,5.80
2012,01,26,15,43,5.70
2012,01,26,15,44,14.40
2012,01,26,15,45,9.10
2012,01,26,15,46,9.00
2012,01,26,15,47,6.80
2012,01,26,15,48,10.90
2012,01,26,15,49,9.40
2012,01,26,15,50,9.70
2012,01,26,15,51,10.80
2012,01,26,15,52,7.30
2012,01,26,15,53,8.40
2012,01,26,15,54,15.50
2012,01,26,15,55,14.00
2012,01,26,15,56,10.10
2012,01,26,15,57,8.80
2012,01,26,15,58,10.40
2012,01,26,15,59,14.20
2012,01,26,16,00,11.80
2012,01,26,16,01,8.20
2012,01,26,16,02,12.50
2012,01,26,16,03,14.00
2012,01,26,16,04,6.30
2012,01,26,16,05,5.30
2012,01,26,16,06,7.40
2012,01,26,16,07,7.40
2012,01,26,16,08,8.50
2012,01,26,16,09,8.40
2012,01,26,16,10,7.80
2012,01,26,16,11,12.20
2012,01,26,16,12,7.20
2012,01,26,16,13,9.30
2012,01,26,16,14,8.60
2012,01,26,16,15,9.20
2012,01,26,16,16,11.90
2012,01,26,16,17,6.70
2012,01,26,16,18,7.20
2012,01,26,16,19,7.30
2012,01,26,16,20,7.80
2012,01,26,16,21,9.20
2012,01,26,16,22,4.30
2012,01,26,16,23,5.00
2012,01,26,16,24,6.90
2012,01,26,16,25,7.20
2012,01,26,16,26,4.60
2012,01,26,16,27,2.90
2012,01,26,16,28,3.90
2012,01,26,16,29,11.70
2012,01,26,16,30,9.50
2012,01,26,16,31,6.00
2012,01,26,16,32,4.80
2012,01,26,16,33,1.80
2012,01,26,16,34,4.10
2012,01,26,16,35,7.20
2012,01,26,16,36,6.90
2012,01,26,16,37,7.30
2012,01,26,16,38,8.60
2012,01,26,16,39,8.10
2012,01,26,16,40,5.00
2012,01,26,16,41,4.10
2012,01,26,16,42,7.70
2012,01,26,16,43,6.50
2012,01,26,16,44,4.60
2012,01,26,16,45,1.90
2012,01,26,16,46,1.00
2012,01,26,16,47,3.50
2012,01,26,16,48,2.00
2012,01,26,16,49,2.10
2012,01,26,16,50,3.70
2012,01,26,16,51,4.10
2012,01,26,16,52,9.60
2012,01,26,16,53,9.00
2012,01,26,16,54,6.10
2012,01,26,16,55,4.30
2012,01,26,16,56,1.00
2012,01,26,16,57,0.10
2012,01,26,16,58,0.00
2012,01,26,16,59,0.20
2012,01,26,17,00,1.10
2012,01,26,17,01,0.00
2012,01,26,17,02,0.00
2012,01,26,17,03,0.20
2012,01,26,17,04,0.10
2012,01,26,17,05,0.00
2012,01,26,17,06,0.20
2012,01,26,17,07,3.60
2012,01,26,17,08,0.10
2012,01,26,17,09,0.10
2012,01,26,17,10,1.20
2012,01,26,17,11,1.40
2012,01,26,17,12,1.40
2012,01,26,17,13,0.00
2012,01,26,17,14,0.10
2012,01,26,17,15,1.40
2012,01,26,17,16,0.00
2012,01,26,17,17,0.00
2012,01,26,17,18,0.10
2012,01,26,17,19,0.00
2012,01,26,17,20,0.00
2012,01,26,17,21,0.10
2012,01,26,17,22,0.80
2012,01,26,17,23,0.30
2012,01,26,17,24,0.30
2012,01,26,17,25,0.30
2012,01,26,17,26,0.60
2012,01,26,17,27,0.30
2012,01,26,17,28,0.00
2012,01,26,17,29,0.00
2012,01,26,17,30,0.00
2012,01,26,17,31,0.00
2012,01,26,17,32,0.00
2012,01,26,17,33,0.00
2012,01,26,17,34,0.00
2012,01,26,17,35,0.00
2012,01,26,17,36,0.00
2012,01,26,17,37,0.20
2012,01,26,17,38,0.20
2012,01,26,17,39,1.10
2012,01,26,17,40,0.00
2012,01,26,17,41,2.20
2012,01,26,17,42,0.00
2012,01,26,17,43,0.70
2012,01,26,17,44,3.10
2012,01,26,17,45,3.10
2012,01,26,17,46,0.20
2012,01,26,17,47,0.30
2012,01,26,17,48,0.00
2012,01,26,17,49,0.00
2012,01,26,17,50,0.10
2012,01,26,17,51,0.00
2012,01,26,17,52,0.20
2012,01,26,17,53,0.10
2012,01,26,17,54,0.40
2012,01,26,17,55,4.00
2012,01,26,17,56,3.80